DW8937 Weather Reports


Display with metric or nautical units.
time (UTC)temp
F
wind
direction
speed
MPH
gust
MPH
rain 1hr
in
rain 24hr
in
rain mn
in
humidity
%
barometer
mb
20201203100205 29 128 5.0 10.0 0.00 0.00 0.00 88 1020.6
20201203095705 29 146 5.0 9.0 0.00 0.00 0.00 88 1020.7
20201203095209 29 130 5.0 9.0 0.00 0.00 0.00 88 1020.7
20201203094704 29 131 5.0 11.0 0.00 0.00 0.00 88 1020.8
20201203094204 29 130 6.0 11.0 0.00 0.00 0.00 88 1020.8
20201203093705 29 144 6.0 11.0 0.00 0.00 0.00 88 1020.8
20201203093204 29 133 5.0 10.0 0.00 0.00 0.00 88 1020.9
20201203092706 29 124 5.0 10.0 0.00 0.00 0.00 88 1020.9
20201203092203 29 152 5.0 10.0 0.00 0.00 0.00 88 1021.0
20201203091704 29 130 5.0 10.0 0.00 0.00 0.00 88 1021.0
20201203091203 29 126 5.0 10.0 0.00 0.00 0.00 88 1021.0
20201203090703 29 132 5.0 10.0 0.00 0.00 0.00 88 1021.1
20201203090210 29 127 5.0 10.0 0.00 0.00 0.00 88 1021.1
20201203085703 29 143 5.0 10.0 0.00 0.00 0.00 88 1021.2
20201203085203 29 126 6.0 10.0 0.00 0.00 0.00 88 1021.2
20201203084704 29 128 5.0 10.0 0.00 0.00 0.00 88 1021.3
20201203084204 29 113 5.0 12.0 0.00 0.00 0.00 88 1021.2
20201203083703 29 122 6.0 12.0 0.00 0.00 0.00 88 1021.2
20201203083203 29 115 6.0 12.0 0.00 0.00 0.00 88 1021.2
20201203082704 28 133 5.0 11.0 0.00 0.00 0.00 88 1021.1
20201203082204 28 117 5.0 11.0 0.00 0.00 0.00 89 1021.2
20201203081703 28 123 5.0 11.0 0.00 0.00 0.00 89 1021.2
20201203081204 28 121 5.0 10.0 0.00 0.00 0.00 88 1021.3
20201203080707 28 116 5.0 9.0 0.00 0.00 0.00 88 1021.3
20201203080205 28 140 6.0 11.0 0.00 0.00 0.00 88 1021.2
20201203075706 28 118 5.0 11.0 0.00 0.00 0.00 88 1021.3
20201203075204 28 108 5.0 11.0 0.00 0.00 0.00 88 1021.4
20201203074705 28 117 6.0 9.0 0.00 0.00 0.00 88 1021.4
20201203074204 28 122 6.0 10.0 0.00 0.00 0.00 88 1021.4
20201203073704 28 126 5.0 10.0 0.00 0.00 0.00 88 1021.4
20201203073205 28 116 5.0 13.0 0.00 0.00 0.00 88 1021.3
20201203072703 28 120 6.0 13.0 0.00 0.00 0.00 88 1021.3
20201203072204 28 125 6.0 13.0 0.00 0.00 0.00 87 1021.3
20201203071703 28 115 5.0 12.0 0.00 0.00 0.00 87 1021.3
20201203071203 28 117 6.0 11.0 0.00 0.00 0.00 87 1021.4
20201203070703 28 109 5.0 10.0 0.00 0.00 0.00 87 1021.5
20201203070205 28 123 4.0 10.0 0.00 0.00 0.00 87 1021.5
20201203065704 28 123 4.0 10.0 0.00 0.00 0.00 86 1021.4
20201203065203 28 120 4.0 8.0 0.00 0.00 0.00 86 1021.4
20201203064703 28 120 4.0 8.0 0.00 0.00 0.00 86 1021.4
20201203064205 28 128 4.0 5.0 0.00 0.00 0.00 86 1021.5
20201203063707 28 135 3.0 7.0 0.00 0.00 0.00 86 1021.5
20201203063206 28 135 4.0 7.0 0.00 0.00 0.00 86 1021.6
20201203062703 28 135 4.0 7.0 0.00 0.00 0.00 86 1021.6
20201203062205 28 136 4.0 8.0 0.00 0.00 0.00 86 1021.6
20201203061708 28 136 4.0 8.0 0.00 0.00 0.00 86 1021.6
20201203061204 28 136 4.0 8.0 0.00 0.00 0.00 86 1021.6
20201203060713 28 136 5.0 12.0 0.00 0.00 0.00 86 1021.6
20201203060208 28 142 5.0 12.0 0.00 0.00 0.00 86 1021.6
20201203055705 28 146 5.0 12.0 0.00 0.00 0.00 86 1021.7
20201203055203 28 148 5.0 10.0 0.00 0.00 0.00 86 1021.8
20201203054705 28 171 4.0 10.0 0.00 0.00 0.00 86 1021.8
20201203054204 28 161 4.0 10.0 0.00 0.00 0.00 86 1021.8
20201203053703 28 140 6.0 10.0 0.00 0.00 0.00 86 1021.9
20201203053206 28 165 6.0 11.0 0.00 0.00 0.00 86 1021.9
20201203052708 28 145 7.0 12.0 0.00 0.00 0.00 86 1021.9
20201203052204 28 154 7.0 14.0 0.00 0.00 0.00 87 1021.9
20201203051704 28 144 7.0 14.0 0.00 0.00 0.00 87 1022.1
20201203051203 28 128 6.0 14.0 0.00 0.00 0.00 87 1022.1
20201203050704 27 159 5.0 10.0 0.00 0.00 0.00 88 1022.2
20201203050220 27 167 5.0 10.0 0.00 0.00 0.00 88 1022.2
20201203045706 27 130 5.0 10.0 0.00 0.00 0.00 88 1022.2
20201203045217 27 146 4.0 9.0 0.00 0.00 0.00 88 1022.2
20201203044703 27 145 4.0 8.0 0.00 0.00 0.00 88 1022.3
20201203044205 27 145 4.0 7.0 0.00 0.00 0.00 88 1022.3
20201203043703 27 154 3.0 6.0 0.00 0.00 0.00 88 1022.4
20201203043205 27 155 3.0 7.0 0.00 0.00 0.00 88 1022.4
20201203042703 27 155 3.0 8.0 0.00 0.00 0.00 88 1022.5
20201203042205 27 155 4.0 10.0 0.00 0.00 0.00 88 1022.5
20201203041707 27 155 5.0 11.0 0.00 0.00 0.00 88 1022.6
20201203041203 27 161 7.0 12.0 0.00 0.00 0.00 89 1022.7
20201203040705 27 186 8.0 12.0 0.00 0.00 0.00 89 1022.7
20201203040204 27 175 8.0 12.0 0.00 0.00 0.00 89 1022.7
20201203035707 27 149 7.0 15.0 0.00 0.00 0.00 89 1022.7
20201203035205 27 171 7.0 15.0 0.00 0.00 0.00 89 1022.7
20201203034703 27 167 8.0 15.0 0.00 0.00 0.00 89 1022.7
20201203034203 27 162 7.0 12.0 0.00 0.00 0.00 89 1022.7
20201203033704 27 171 6.0 11.0 0.00 0.00 0.00 89 1022.8
20201203033204 27 171 6.0 11.0 0.00 0.00 0.00 89 1023.0
20201203032703 27 202 5.0 10.0 0.00 0.00 0.00 88 1023.0
20201203032204 27 161 5.0 11.0 0.00 0.00 0.00 89 1022.9
20201203031704 27 144 6.0 12.0 0.00 0.00 0.00 89 1022.9
20201203031204 27 173 7.0 14.0 0.00 0.00 0.00 89 1023.0
20201203030703 27 178 7.0 14.0 0.00 0.00 0.00 89 1023.0
20201203030203 27 163 7.0 14.0 0.00 0.00 0.00 89 1023.0
20201203025704 27 165 5.0 12.0 0.00 0.00 0.00 89 1023.1
20201203025204 27 149 4.0 10.0 0.00 0.00 0.00 89 1023.0
20201203024703 27 175 6.0 12.0 0.00 0.00 0.00 88 1023.1
20201203024207 27 171 7.0 12.0 0.00 0.00 0.00 88 1023.1
20201203023703 27 165 7.0 12.0 0.00 0.00 0.00 88 1023.2
20201203023204 27 151 6.0 11.0 0.00 0.00 0.00 88 1023.2
20201203022703 27 188 5.0 10.0 0.00 0.00 0.00 88 1023.2
20201203022204 27 181 5.0 11.0 0.00 0.00 0.00 88 1023.2
20201203021705 27 153 5.0 13.0 0.00 0.00 0.00 88 1023.3
20201203021203 27 140 6.0 13.0 0.00 0.00 0.00 88 1023.3
20201203020705 27 173 8.0 19.0 0.00 0.00 0.00 88 1023.3
20201203020206 27 165 9.0 19.0 0.00 0.00 0.00 88 1023.3
20201203015706 27 151 10.0 19.0 0.00 0.00 0.00 88 1023.4
20201203015204 27 161 9.0 16.0 0.00 0.00 0.00 88 1023.4
20201203014707 27 173 9.0 16.0 0.00 0.00 0.00 88 1023.5
20201203014205 27 196 8.0 18.0 0.00 0.00 0.00 88 1023.5
20201203013704 27 159 7.0 18.0 0.00 0.00 0.00 88 1023.6
20201203013204 27 177 9.0 18.0 0.00 0.00 0.00 88 1023.7
20201203012704 28 171 8.0 15.0 0.00 0.00 0.00 88 1023.7
20201203012208 28 177 7.0 15.0 0.00 0.00 0.00 88 1023.7
20201203011704 28 183 8.0 15.0 0.00 0.00 0.00 88 1023.8
20201203011206 28 167 7.0 15.0 0.00 0.00 0.00 88 1023.9
20201203010705 28 161 8.0 15.0 0.00 0.00 0.00 88 1023.9
20201203010204 28 148 9.0 14.0 0.00 0.00 0.00 88 1024.0
20201203005711 28 172 9.0 15.0 0.00 0.00 0.00 88 1024.0
20201203005207 28 167 8.0 15.0 0.00 0.00 0.00 88 1024.0
20201203004705 28 173 7.0 15.0 0.00 0.00 0.00 88 1024.1
20201203004208 28 171 8.0 15.0 0.00 0.00 0.00 88 1024.1
20201203003708 28 157 8.0 15.0 0.00 0.00 0.00 88 1024.2
20201203003204 28 152 8.0 15.0 0.00 0.00 0.00 88 1024.2
20201203002704 28 159 8.0 14.0 0.00 0.00 0.00 88 1024.3
20201203002208 28 143 7.0 11.0 0.00 0.00 0.00 88 1024.3
20201203001703 28 140 6.0 12.0 0.00 0.00 0.00 88 1024.3
20201203001204 28 143 5.0 12.0 0.00 0.00 0.00 88 1024.4
20201203000738 28 162 7.0 15.0 0.00 0.00 0.00 88 1024.4
20201203000247 27 165 8.0 15.0 0.00 0.00 0.00 88 1024.4
20201202235703 27 149 9.0 15.0 0.00 0.00 0.00 88 1024.5
20201202235213 27 158 8.0 16.0 0.00 0.00 0.00 88 1024.6
20201202234703 27 123 7.0 16.0 0.00 0.00 0.00 88 1024.6
20201202234205 27 165 6.0 16.0 0.00 0.00 0.00 88 1024.8
20201202233704 27 159 7.0 14.0 0.00 0.00 0.00 88 1024.8
20201202233206 27 161 8.0 17.0 0.00 0.00 0.00 88 1024.9
20201202232703 27 154 9.0 17.0 0.00 0.00 0.00 88 1024.9
20201202232203 27 161 10.0 16.0 0.00 0.00 0.00 88 1025.0
20201202231706 27 145 10.0 15.0 0.00 0.00 0.00 88 1025.0
20201202231204 27 150 10.0 15.0 0.00 0.00 0.00 88 1024.9
20201202230705 27 140 9.0 15.0 0.00 0.00 0.00 88 1025.0
20201202230205 27 146 8.0 15.0 0.00 0.00 0.00 88 1025.0
20201202225704 27 156 8.0 15.0 0.00 0.00 0.00 88 1025.0
20201202225205 27 162 8.0 14.0 0.00 0.00 0.00 88 1025.1
20201202224705 27 151 9.0 14.0 0.00 0.00 0.00 88 1025.0
20201202224203 27 125 8.0 13.0 0.00 0.00 0.00 88 1025.0
20201202222208 27 142 7.0 14.0 0.00 0.00 0.00 88 1025.1
20201202221707 27 151 6.0 14.0 0.00 0.00 0.00 88 1025.2
20201202221218 27 140 6.0 14.0 0.00 0.00 0.00 88 1025.2
20201202220204 27 184 8.0 14.0 0.00 0.00 0.00 88 1025.3
20201202215706 27 145 8.0 15.0 0.00 0.00 0.00 88 1025.3
20201202215203 27 175 8.0 16.0 0.00 0.00 0.00 88 1025.4
20201202214703 27 159 8.0 17.0 0.00 0.00 0.00 88 1025.4
20201202214203 27 150 10.0 18.0 0.00 0.00 0.00 88 1025.5
20201202213705 27 153 10.0 18.0 0.00 0.00 0.00 88 1025.5
20201202213205 27 158 10.0 18.0 0.00 0.00 0.00 88 1025.6
20201202212705 27 174 10.0 16.0 0.00 0.00 0.00 88 1025.6
20201202212206 27 161 10.0 17.0 0.00 0.00 0.00 88 1025.6
20201202211706 27 136 9.0 21.0 0.00 0.00 0.00 88 1025.6
20201202211209 27 153 10.0 21.0 0.00 0.00 0.00 88 1025.5
20201202210703 26 165 11.0 21.0 0.00 0.00 0.00 88 1025.6
20201202210214 26 169 11.0 19.0 0.00 0.00 0.00 88 1025.5
20201202205703 26 157 10.0 15.0 0.00 0.00 0.00 87 1025.6
20201202205203 26 156 10.0 15.0 0.00 0.00 0.00 87 1025.5
20201202204704 26 141 9.0 15.0 0.00 0.00 0.00 87 1025.6
20201202204205 26 152 8.0 15.0 0.00 0.00 0.00 87 1025.7
20201202203704 26 138 8.0 15.0 0.00 0.00 0.00 87 1025.7
20201202203203 26 142 9.0 14.0 0.00 0.00 0.00 87 1025.7
20201202202703 26 135 9.0 15.0 0.00 0.00 0.00 87 1025.7
20201202202204 26 160 8.0 15.0 0.00 0.00 0.00 87 1025.7
20201202201707 26 123 8.0 17.0 0.00 0.00 0.00 87 1025.8
20201202201207 26 171 9.0 17.0 0.00 0.00 0.00 87 1025.8
20201202200704 25 140 8.0 17.0 0.00 0.00 0.00 87 1025.8
20201202200205 25 144 9.0 16.0 0.00 0.00 0.00 87 1025.8
20201202195706 25 143 8.0 14.0 0.00 0.00 0.00 87 1025.8
20201202195208 25 157 8.0 14.0 0.00 0.00 0.00 88 1025.9
20201202194704 25 140 8.0 14.0 0.00 0.00 0.00 88 1025.8
20201202194203 25 147 7.0 17.0 0.00 0.00 0.00 88 1025.8
20201202193703 25 137 8.0 17.0 0.00 0.00 0.00 88 1025.8
20201202193206 25 157 8.0 17.0 0.00 0.00 0.00 88 1025.9
20201202192711 25 165 8.0 14.0 0.00 0.00 0.00 88 1025.9
20201202192208 25 156 8.0 14.0 0.00 0.00 0.00 88 1025.9
20201202191703 25 161 8.0 14.0 0.00 0.00 0.00 88 1026.0
20201202191206 25 150 8.0 13.0 0.00 0.00 0.00 88 1025.9
20201202190709 26 169 8.0 15.0 0.00 0.00 0.00 88 1025.9
20201202190215 26 157 7.0 15.0 0.00 0.00 0.00 89 1026.0
20201202185706 26 143 7.0 15.0 0.00 0.00 0.00 89 1026.0
20201202185204 26 156 7.0 14.0 0.00 0.00 0.00 89 1026.0
20201202184703 26 159 8.0 13.0 0.00 0.00 0.00 89 1026.1
20201202184204 26 157 7.0 15.0 0.00 0.00 0.00 88 1026.1
20201202183706 26 153 6.0 15.0 0.00 0.00 0.00 88 1026.1
20201202183204 26 140 7.0 15.0 0.00 0.00 0.00 88 1026.1
20201202182705 26 173 7.0 11.0 0.00 0.00 0.00 88 1026.1
20201202182212 26 139 6.0 14.0 0.00 0.00 0.00 89 1026.1
20201202181704 26 150 8.0 14.0 0.00 0.00 0.00 89 1026.1
20201202181206 26 181 8.0 14.0 0.00 0.00 0.00 89 1026.1
20201202180706 26 165 8.0 15.0 0.00 0.00 0.00 89 1026.1
20201202180204 26 176 8.0 15.0 0.00 0.00 0.00 89 1026.1
20201202175703 27 138 8.0 15.0 0.00 0.00 0.00 89 1026.2
20201202175206 27 163 8.0 15.0 0.00 0.00 0.00 89 1026.1
20201202174711 27 148 8.0 15.0 0.00 0.00 0.00 89 1026.2
20201202174205 27 162 9.0 15.0 0.00 0.00 0.00 89 1026.2
20201202173703 27 150 8.0 15.0 0.00 0.00 0.00 89 1026.2
20201202173207 27 158 7.0 13.0 0.00 0.00 0.00 88 1026.3
20201202172708 27 153 7.0 13.0 0.00 0.00 0.00 89 1026.3
20201202172207 27 155 7.0 13.0 0.00 0.00 0.00 88 1026.3
20201202171705 27 134 7.0 13.0 0.00 0.00 0.00 88 1026.4
20201202171204 27 157 6.0 14.0 0.00 0.00 0.00 88 1026.5
20201202170704 27 169 7.0 14.0 0.00 0.00 0.00 88 1026.5
20201202170203 27 147 7.0 12.0 0.00 0.00 0.00 88 1026.5
20201202165704 28 156 7.0 12.0 0.00 0.00 0.00 88 1026.5
20201202165203 28 153 7.0 14.0 0.00 0.00 0.00 88 1026.5
20201202164706 28 146 6.0 14.0 0.00 0.00 0.00 88 1026.5
20201202164211 28 147 6.0 14.0 0.00 0.00 0.00 87 1026.6
20201202163709 28 143 7.0 13.0 0.00 0.00 0.00 87 1026.6
20201202163255 28 169 7.0 13.0 0.00 0.00 0.00 87 1026.7
20201202162705 28 162 7.0 13.0 0.00 0.00 0.00 87 1026.7
20201202162203 28 159 8.0 13.0 0.00 0.00 0.00 87 1026.7
20201202161703 28 161 7.0 13.0 0.00 0.00 0.00 87 1026.7
20201202161204 28 144 7.0 13.0 0.00 0.00 0.00 87 1026.7
20201202160703 28 167 7.0 14.0 0.00 0.00 0.00 87 1026.9
20201202160205 28 160 8.0 14.0 0.00 0.00 0.00 87 1026.9
20201202155708 29 151 8.0 14.0 0.00 0.00 0.00 87 1026.7
20201202155203 29 162 7.0 14.0 0.00 0.00 0.00 86 1026.9
20201202154709 29 161 7.0 14.0 0.00 0.00 0.00 86 1027.0
20201202154203 29 159 8.0 14.0 0.00 0.00 0.00 87 1026.9
20201202153704 29 148 8.0 14.0 0.00 0.00 0.00 86 1026.9
20201202153213 29 167 7.0 14.0 0.00 0.00 0.00 86 1026.9
20201202152704 29 159 7.0 12.0 0.00 0.00 0.00 86 1026.9
20201202152205 29 153 7.0 14.0 0.00 0.00 0.00 86 1026.9
20201202151704 29 155 7.0 14.0 0.00 0.00 0.00 86 1026.7
20201202151206 30 146 8.0 14.0 0.00 0.00 0.00 86 1026.9
20201202150705 30 150 7.0 15.0 0.00 0.00 0.00 86 1026.7
20201202150205 30 161 7.0 15.0 0.00 0.00 0.00 86 1026.7
20201202145705 30 165 7.0 13.0 0.00 0.00 0.00 86 1026.9
20201202145203 30 171 7.0 13.0 0.00 0.00 0.00 86 1026.7
20201202144708 30 167 7.0 12.0 0.00 0.00 0.00 86 1027.0
20201202144204 30 155 7.0 12.0 0.00 0.00 0.00 86 1027.0
20201202143703 30 159 7.0 12.0 0.00 0.00 0.00 86 1027.0
20201202143207 30 144 7.0 12.0 0.00 0.00 0.00 86 1027.0
20201202142704 30 152 6.0 11.0 0.00 0.00 0.00 86 1027.1
20201202142204 30 171 5.0 11.0 0.00 0.00 0.00 86 1027.2
20201202141703 30 154 6.0 11.0 0.00 0.00 0.00 86 1027.1
20201202141206 30 146 7.0 11.0 0.00 0.00 0.00 86 1027.2
20201202140710 30 166 6.0 11.0 0.00 0.00 0.00 86 1027.2
20201202140209 30 135 6.0 11.0 0.00 0.00 0.00 86 1027.2
20201202135705 30 148 7.0 11.0 0.00 0.00 0.00 86 1027.2
20201202135204 30 141 7.0 11.0 0.00 0.00 0.00 86 1027.3
20201202134703 30 154 6.0 11.0 0.00 0.00 0.00 86 1027.4
20201202134206 30 145 6.0 9.0 0.00 0.00 0.00 86 1027.4
20201202133715 30 155 5.0 8.0 0.00 0.00 0.00 86 1027.4
20201202133206 30 157 5.0 11.0 0.00 0.00 0.00 86 1027.5
20201202132704 30 161 6.0 11.0 0.00 0.00 0.00 86 1027.6
20201202132211 30 176 6.0 10.0 0.00 0.00 0.00 85 1027.6
20201202131704 30 155 6.0 10.0 0.00 0.00 0.00 85 1027.6
20201202131206 30 167 5.0 9.0 0.00 0.00 0.00 85 1027.6
20201202130704 30 172 5.0 10.0 0.00 0.00 0.00 85 1027.5
20201202130205 30 155 6.0 10.0 0.00 0.00 0.00 84 1027.6
20201202125704 31 164 6.0 10.0 0.00 0.00 0.00 84 1027.6
20201202125205 31 170 6.0 10.0 0.00 0.00 0.00 84 1027.7
20201202124704 31 165 6.0 13.0 0.00 0.00 0.00 84 1027.7
20201202124204 31 147 6.0 13.0 0.00 0.00 0.00 83 1027.7
20201202123708 31 167 6.0 12.0 0.00 0.00 0.00 83 1027.7
20201202123204 31 169 6.0 12.0 0.00 0.00 0.00 83 1027.7
20201202122707 31 168 7.0 12.0 0.00 0.00 0.00 83 1027.6
20201202122204 32 152 7.0 12.0 0.00 0.00 0.00 83 1027.7
20201202121706 32 169 7.0 12.0 0.00 0.00 0.00 83 1027.7
20201202121204 32 174 7.0 12.0 0.00 0.00 0.00 83 1027.7
20201202120704 32 156 7.0 10.0 0.00 0.00 0.00 83 1027.7
20201202120211 32 165 6.0 11.0 0.00 0.00 0.00 84 1027.8
20201202115714 32 166 6.0 12.0 0.00 0.00 0.00 84 1027.8
20201202115208 32 140 7.0 15.0 0.00 0.00 0.00 85 1027.8
20201202114708 32 171 7.0 15.0 0.00 0.00 0.00 85 1027.9
20201202114205 32 158 7.0 15.0 0.00 0.00 0.00 85 1027.9
20201202113703 32 166 7.0 14.0 0.00 0.00 0.00 85 1027.9
20201202113212 32 176 7.0 14.0 0.00 0.00 0.00 86 1027.8
20201202112703 32 161 7.0 15.0 0.00 0.00 0.00 86 1027.9
20201202112209 32 161 7.0 15.0 0.00 0.00 0.00 86 1027.9
20201202111707 32 158 6.0 15.0 0.00 0.00 0.00 86 1027.9
20201202111205 32 150 6.0 10.0 0.00 0.00 0.00 87 1027.9
20201202110704 32 190 6.0 12.0 0.00 0.00 0.00 87 1028.0
20201202110204 32 167 6.0 12.0 0.00 0.00 0.00 87 1027.9
20201202105704 32 180 7.0 11.0 0.00 0.00 0.00 87 1028.0
20201202105204 32 169 7.0 10.0 0.00 0.00 0.00 87 1028.0
20201202104704 32 159 6.0 11.0 0.00 0.00 0.00 88 1028.1
20201202104203 32 169 6.0 11.0 0.00 0.00 0.00 88 1028.0
20201202103703 32 166 6.0 11.0 0.00 0.00 0.00 88 1028.1
20201202103205 32 177 6.0 11.0 0.00 0.00 0.00 88 1028.1
20201202102704 32 148 6.0 12.0 0.00 0.00 0.00 88 1028.2
20201202102206 32 161 6.0 12.0 0.00 0.00 0.00 87 1028.2
20201202101708 32 161 6.0 12.0 0.00 0.00 0.00 87 1028.3
20201202101204 31 161 6.0 10.0 0.00 0.00 0.00 87 1028.3
20201202100704 31 160 6.0 11.0 0.00 0.00 0.00 87 1028.3